Year,Month,Day,Hour,Minute,Value (Times are PST for temperature in C)
2010,09,25,00,00,15.30
2010,09,25,00,01,15.30
2010,09,25,00,02,15.30
2010,09,25,00,03,15.20
2010,09,25,00,04,15.20
2010,09,25,00,05,15.20
2010,09,25,00,06,15.10
2010,09,25,00,07,15.10
2010,09,25,00,08,15.10
2010,09,25,00,09,15.10
2010,09,25,00,10,15.10
2010,09,25,00,11,15.00
2010,09,25,00,12,15.00
2010,09,25,00,13,15.00
2010,09,25,00,14,15.00
2010,09,25,00,15,15.00
2010,09,25,00,16,15.00
2010,09,25,00,17,15.00
2010,09,25,00,18,15.00
2010,09,25,00,19,15.00
2010,09,25,00,20,15.00
2010,09,25,00,21,15.00
2010,09,25,00,22,15.00
2010,09,25,00,23,15.00
2010,09,25,00,24,15.10
2010,09,25,00,25,15.10
2010,09,25,00,26,15.10
2010,09,25,00,27,15.00
2010,09,25,00,28,15.00
2010,09,25,00,29,15.00
2010,09,25,00,30,15.00
2010,09,25,00,31,15.00
2010,09,25,00,32,15.00
2010,09,25,00,33,15.00
2010,09,25,00,34,15.00
2010,09,25,00,35,15.00
2010,09,25,00,36,15.00
2010,09,25,00,37,15.00
2010,09,25,00,38,15.00
2010,09,25,00,39,15.00
2010,09,25,00,40,15.00
2010,09,25,00,41,15.00
2010,09,25,00,42,15.00
2010,09,25,00,43,15.00
2010,09,25,00,44,15.00
2010,09,25,00,45,15.00
2010,09,25,00,46,15.00
2010,09,25,00,47,15.00
2010,09,25,00,48,15.00
2010,09,25,00,49,15.00
2010,09,25,00,50,15.00
2010,09,25,00,51,15.10
2010,09,25,00,52,15.10
2010,09,25,00,53,15.20
2010,09,25,00,54,15.20
2010,09,25,00,55,15.20
2010,09,25,00,56,15.20
2010,09,25,00,57,15.20
2010,09,25,00,58,15.20
2010,09,25,00,59,15.20
2010,09,25,01,00,15.20
2010,09,25,01,01,15.20
2010,09,25,01,02,15.20
2010,09,25,01,03,15.30
2010,09,25,01,04,15.30
2010,09,25,01,05,15.30
2010,09,25,01,06,15.30
2010,09,25,01,07,15.30
2010,09,25,01,08,15.40
2010,09,25,01,09,15.50
2010,09,25,01,10,15.50
2010,09,25,01,11,15.60
2010,09,25,01,12,15.60
2010,09,25,01,13,15.50
2010,09,25,01,14,15.50
2010,09,25,01,15,15.50
2010,09,25,01,16,15.50
2010,09,25,01,17,15.50
2010,09,25,01,18,15.50
2010,09,25,01,19,15.50
2010,09,25,01,20,15.50
2010,09,25,01,21,15.40
2010,09,25,01,22,15.40
2010,09,25,01,23,15.30
2010,09,25,01,24,15.30
2010,09,25,01,25,15.30
2010,09,25,01,26,15.30
2010,09,25,01,27,15.30
2010,09,25,01,28,15.30
2010,09,25,01,29,15.30
2010,09,25,01,30,15.30
2010,09,25,01,31,15.20
2010,09,25,01,32,15.20
2010,09,25,01,33,15.20
2010,09,25,01,34,15.10
2010,09,25,01,35,15.10
2010,09,25,01,36,15.10
2010,09,25,01,37,15.10
2010,09,25,01,38,15.10
2010,09,25,01,39,15.10
2010,09,25,01,40,15.10
2010,09,25,01,41,15.10
2010,09,25,01,42,15.10
2010,09,25,01,43,15.10
2010,09,25,01,44,15.10
2010,09,25,01,45,15.10
2010,09,25,01,46,15.20
2010,09,25,01,47,15.20
2010,09,25,01,48,15.20
2010,09,25,01,49,15.20
2010,09,25,01,50,15.20
2010,09,25,01,51,15.20
2010,09,25,01,52,15.20
2010,09,25,01,53,15.20
2010,09,25,01,54,15.20
2010,09,25,01,55,15.20
2010,09,25,01,56,15.20
2010,09,25,01,57,15.10
2010,09,25,01,58,15.10
2010,09,25,01,59,15.10
2010,09,25,02,00,15.00
2010,09,25,02,01,15.00
2010,09,25,02,02,15.00
2010,09,25,02,03,15.00
2010,09,25,02,04,15.10
2010,09,25,02,05,15.10
2010,09,25,02,06,15.10
2010,09,25,02,07,15.10
2010,09,25,02,08,15.10
2010,09,25,02,09,15.20
2010,09,25,02,10,15.30
2010,09,25,02,11,15.30
2010,09,25,02,12,15.30
2010,09,25,02,13,15.30
2010,09,25,02,14,15.30
2010,09,25,02,15,15.30
2010,09,25,02,16,15.30
2010,09,25,02,17,15.30
2010,09,25,02,18,15.30
2010,09,25,02,19,15.30
2010,09,25,02,20,15.30
2010,09,25,02,21,15.30
2010,09,25,02,22,15.30
2010,09,25,02,23,15.30
2010,09,25,02,24,15.30
2010,09,25,02,25,15.40
2010,09,25,02,26,15.40
2010,09,25,02,27,15.40
2010,09,25,02,28,15.50
2010,09,25,02,29,15.50
2010,09,25,02,30,15.50
2010,09,25,02,31,15.60
2010,09,25,02,32,15.60
2010,09,25,02,33,15.60
2010,09,25,02,34,15.70
2010,09,25,02,35,15.80
2010,09,25,02,36,15.90
2010,09,25,02,37,15.90
2010,09,25,02,38,15.90
2010,09,25,02,39,15.80
2010,09,25,02,40,15.80
2010,09,25,02,41,15.80
2010,09,25,02,42,15.70
2010,09,25,02,43,15.70
2010,09,25,02,44,15.70
2010,09,25,02,45,15.70
2010,09,25,02,46,15.70
2010,09,25,02,47,15.70
2010,09,25,02,48,15.70
2010,09,25,02,49,15.70
2010,09,25,02,50,15.70
2010,09,25,02,51,15.70
2010,09,25,02,52,15.70
2010,09,25,02,53,15.70
2010,09,25,02,54,15.70
2010,09,25,02,55,15.60
2010,09,25,02,56,15.60
2010,09,25,02,57,15.60
2010,09,25,02,58,15.60
2010,09,25,02,59,15.60
2010,09,25,03,00,15.60
2010,09,25,03,01,15.60
2010,09,25,03,02,15.70
2010,09,25,03,03,15.70
2010,09,25,03,04,15.70
2010,09,25,03,05,15.70
2010,09,25,03,06,15.70
2010,09,25,03,07,15.70
2010,09,25,03,08,15.60
2010,09,25,03,09,15.60
2010,09,25,03,10,15.60
2010,09,25,03,11,15.60
2010,09,25,03,12,15.60
2010,09,25,03,13,15.60
2010,09,25,03,14,15.60
2010,09,25,03,15,15.60
2010,09,25,03,16,15.60
2010,09,25,03,17,15.60
2010,09,25,03,18,15.60
2010,09,25,03,19,15.50
2010,09,25,03,20,15.50
2010,09,25,03,21,15.50
2010,09,25,03,22,15.50
2010,09,25,03,23,15.50
2010,09,25,03,24,15.50
2010,09,25,03,25,15.50
2010,09,25,03,26,15.50
2010,09,25,03,27,15.50
2010,09,25,03,28,15.50
2010,09,25,03,29,15.50
2010,09,25,03,30,15.50
2010,09,25,03,31,15.40
2010,09,25,03,32,15.40
2010,09,25,03,33,15.40
2010,09,25,03,34,15.30
2010,09,25,03,35,15.30
2010,09,25,03,36,15.30
2010,09,25,03,37,15.30
2010,09,25,03,38,15.30
2010,09,25,03,39,15.20
2010,09,25,03,40,15.30
2010,09,25,03,41,15.30
2010,09,25,03,42,15.30
2010,09,25,03,43,15.40
2010,09,25,03,44,15.40
2010,09,25,03,45,15.40
2010,09,25,03,46,15.40
2010,09,25,03,47,15.40
2010,09,25,03,48,15.40
2010,09,25,03,49,15.50
2010,09,25,03,50,15.70
2010,09,25,03,51,15.80
2010,09,25,03,52,15.90
2010,09,25,03,53,15.90
2010,09,25,03,54,15.80
2010,09,25,03,55,15.80
2010,09,25,03,56,15.80
2010,09,25,03,57,15.70
2010,09,25,03,58,15.70
2010,09,25,03,59,15.70
2010,09,25,04,00,15.70
2010,09,25,04,01,15.70
2010,09,25,04,02,15.60
2010,09,25,04,03,15.60
2010,09,25,04,04,15.60
2010,09,25,04,05,15.50
2010,09,25,04,06,15.50
2010,09,25,04,07,15.40
2010,09,25,04,08,15.40
2010,09,25,04,09,15.40
2010,09,25,04,10,15.40
2010,09,25,04,11,15.40
2010,09,25,04,12,15.40
2010,09,25,04,13,15.40
2010,09,25,04,14,15.40
2010,09,25,04,15,15.40
2010,09,25,04,16,15.40
2010,09,25,04,17,15.40
2010,09,25,04,18,15.40
2010,09,25,04,19,15.40
2010,09,25,04,20,15.40
2010,09,25,04,21,15.40
2010,09,25,04,22,15.40
2010,09,25,04,23,15.40
2010,09,25,04,24,15.40
2010,09,25,04,25,15.40
2010,09,25,04,26,15.40
2010,09,25,04,27,15.40
2010,09,25,04,28,15.40
2010,09,25,04,29,15.40
2010,09,25,04,30,15.40
2010,09,25,04,31,15.40
2010,09,25,04,32,15.40
2010,09,25,04,33,15.40
2010,09,25,04,34,15.40
2010,09,25,04,35,15.40
2010,09,25,04,36,15.40
2010,09,25,04,37,15.50
2010,09,25,04,38,15.50
2010,09,25,04,39,15.40
2010,09,25,04,40,15.40
2010,09,25,04,41,15.40
2010,09,25,04,42,15.40
2010,09,25,04,43,15.40
2010,09,25,04,44,15.40
2010,09,25,04,45,15.40
2010,09,25,04,46,15.40
2010,09,25,04,47,15.50
2010,09,25,04,48,15.50
2010,09,25,04,49,15.50
2010,09,25,04,50,15.60
2010,09,25,04,51,15.60
2010,09,25,04,52,15.70
2010,09,25,04,53,15.70
2010,09,25,04,54,15.70
2010,09,25,04,55,15.70
2010,09,25,04,56,15.70
2010,09,25,04,57,15.70
2010,09,25,04,58,15.70
2010,09,25,04,59,15.80
2010,09,25,05,00,15.80
2010,09,25,05,01,15.80
2010,09,25,05,02,15.80
2010,09,25,05,03,15.80
2010,09,25,05,04,15.80
2010,09,25,05,05,15.80
2010,09,25,05,06,15.80
2010,09,25,05,07,15.80
2010,09,25,05,08,15.80
2010,09,25,05,09,15.80
2010,09,25,05,10,15.70
2010,09,25,05,11,15.70
2010,09,25,05,12,15.70
2010,09,25,05,13,15.70
2010,09,25,05,14,15.70
2010,09,25,05,15,15.80
2010,09,25,05,16,15.80
2010,09,25,05,17,15.80
2010,09,25,05,18,15.80
2010,09,25,05,19,15.80
2010,09,25,05,20,15.80
2010,09,25,05,21,15.80
2010,09,25,05,22,15.80
2010,09,25,05,23,15.80
2010,09,25,05,24,15.80
2010,09,25,05,25,15.80
2010,09,25,05,26,15.80
2010,09,25,05,27,15.80
2010,09,25,05,28,15.80
2010,09,25,05,29,15.70
2010,09,25,05,30,15.70
2010,09,25,05,31,15.70
2010,09,25,05,32,15.70
2010,09,25,05,33,15.70
2010,09,25,05,34,15.70
2010,09,25,05,35,15.70
2010,09,25,05,36,15.80
2010,09,25,05,37,15.80
2010,09,25,05,38,15.80
2010,09,25,05,39,15.80
2010,09,25,05,40,15.80
2010,09,25,05,41,15.80
2010,09,25,05,42,15.80
2010,09,25,05,43,15.80
2010,09,25,05,44,15.80
2010,09,25,05,45,15.80
2010,09,25,05,46,15.80
2010,09,25,05,47,15.80
2010,09,25,05,48,15.80
2010,09,25,05,49,15.80
2010,09,25,05,50,15.80
2010,09,25,05,51,15.80
2010,09,25,05,52,15.80
2010,09,25,05,53,15.70
2010,09,25,05,54,15.70
2010,09,25,05,55,15.70
2010,09,25,05,56,15.80
2010,09,25,05,57,15.80
2010,09,25,05,58,15.80
2010,09,25,05,59,15.80
2010,09,25,06,00,15.80
2010,09,25,06,01,15.80
2010,09,25,06,02,15.80
2010,09,25,06,03,15.80
2010,09,25,06,04,15.80
2010,09,25,06,05,15.90
2010,09,25,06,06,15.80
2010,09,25,06,07,15.80
2010,09,25,06,08,15.80
2010,09,25,06,09,15.80
2010,09,25,06,10,15.80
2010,09,25,06,11,15.80
2010,09,25,06,12,15.80
2010,09,25,06,13,15.80
2010,09,25,06,14,15.80
2010,09,25,06,15,15.80
2010,09,25,06,16,15.90
2010,09,25,06,17,15.90
2010,09,25,06,18,15.90
2010,09,25,06,19,15.90
2010,09,25,06,20,15.90
2010,09,25,06,21,15.90
2010,09,25,06,22,15.90
2010,09,25,06,23,15.80
2010,09,25,06,24,15.80
2010,09,25,06,25,15.80
2010,09,25,06,26,15.80
2010,09,25,06,27,15.90
2010,09,25,06,28,15.90
2010,09,25,06,29,15.90
2010,09,25,06,30,15.80
2010,09,25,06,31,15.80
2010,09,25,06,32,15.80
2010,09,25,06,33,15.80
2010,09,25,06,34,15.80
2010,09,25,06,35,15.90
2010,09,25,06,36,15.90
2010,09,25,06,37,15.90
2010,09,25,06,38,15.90
2010,09,25,06,39,15.90
2010,09,25,06,40,15.90
2010,09,25,06,41,16.00
2010,09,25,06,42,16.00
2010,09,25,06,43,16.00
2010,09,25,06,44,16.00
2010,09,25,06,45,16.00
2010,09,25,06,46,16.00
2010,09,25,06,47,16.00
2010,09,25,06,48,16.00
2010,09,25,06,49,16.00
2010,09,25,06,50,16.00
2010,09,25,06,51,16.00
2010,09,25,06,52,16.00
2010,09,25,06,53,16.10
2010,09,25,06,54,16.10
2010,09,25,06,55,16.10
2010,09,25,06,56,16.10
2010,09,25,06,57,16.00
2010,09,25,06,58,16.00
2010,09,25,06,59,16.00
2010,09,25,07,00,16.00
2010,09,25,07,01,16.00
2010,09,25,07,02,16.00
2010,09,25,07,03,16.00
2010,09,25,07,04,16.00
2010,09,25,07,05,16.00
2010,09,25,07,06,16.00
2010,09,25,07,07,16.00
2010,09,25,07,08,16.00
2010,09,25,07,09,16.00
2010,09,25,07,10,16.00
2010,09,25,07,11,16.00
2010,09,25,07,12,16.10
2010,09,25,07,13,16.00
2010,09,25,07,14,16.00
2010,09,25,07,15,16.00
2010,09,25,07,16,16.00
2010,09,25,07,17,16.00
2010,09,25,07,18,15.90
2010,09,25,07,19,15.90
2010,09,25,07,20,15.90
2010,09,25,07,21,15.90
2010,09,25,07,22,15.90
2010,09,25,07,23,15.90
2010,09,25,07,24,16.00
2010,09,25,07,25,16.00
2010,09,25,07,26,16.00
2010,09,25,07,27,15.90
2010,09,25,07,28,15.90
2010,09,25,07,29,15.90
2010,09,25,07,30,15.90
2010,09,25,07,31,15.90
2010,09,25,07,32,15.90
2010,09,25,07,33,15.90
2010,09,25,07,34,15.80
2010,09,25,07,35,15.80
2010,09,25,07,36,15.80
2010,09,25,07,37,15.80
2010,09,25,07,38,15.80
2010,09,25,07,39,15.80
2010,09,25,07,40,15.80
2010,09,25,07,41,15.80
2010,09,25,07,42,15.80
2010,09,25,07,43,15.80
2010,09,25,07,44,15.80
2010,09,25,07,45,15.80
2010,09,25,07,46,15.80
2010,09,25,07,47,15.80
2010,09,25,07,48,15.80
2010,09,25,07,49,15.80
2010,09,25,07,50,15.90
2010,09,25,07,51,15.90
2010,09,25,07,52,15.90
2010,09,25,07,53,15.90
2010,09,25,07,54,15.90
2010,09,25,07,55,15.90
2010,09,25,07,56,15.90
2010,09,25,07,57,15.90
2010,09,25,07,58,15.90
2010,09,25,07,59,16.00
2010,09,25,08,00,16.00
2010,09,25,08,01,16.00
2010,09,25,08,02,16.00
2010,09,25,08,03,16.00
2010,09,25,08,04,16.10
2010,09,25,08,05,16.10
2010,09,25,08,06,16.10
2010,09,25,08,07,16.10
2010,09,25,08,08,16.20
2010,09,25,08,09,16.20
2010,09,25,08,10,16.20
2010,09,25,08,11,16.20
2010,09,25,08,12,16.20
2010,09,25,08,13,16.20
2010,09,25,08,14,16.20
2010,09,25,08,15,16.20
2010,09,25,08,16,16.20
2010,09,25,08,17,16.20
2010,09,25,08,18,16.20
2010,09,25,08,19,16.20
2010,09,25,08,20,16.20
2010,09,25,08,21,16.20
2010,09,25,08,22,16.20
2010,09,25,08,23,16.20
2010,09,25,08,24,16.20
2010,09,25,08,25,16.20
2010,09,25,08,26,16.30
2010,09,25,08,27,16.30
2010,09,25,08,28,16.30
2010,09,25,08,29,16.30
2010,09,25,08,30,16.30
2010,09,25,08,31,16.30
2010,09,25,08,32,16.30
2010,09,25,08,33,16.30
2010,09,25,08,34,16.30
2010,09,25,08,35,16.20
2010,09,25,08,36,16.20
2010,09,25,08,37,16.20
2010,09,25,08,38,16.10
2010,09,25,08,39,16.10
2010,09,25,08,40,16.20
2010,09,25,08,41,16.20
2010,09,25,08,42,16.20
2010,09,25,08,43,16.20
2010,09,25,08,44,16.20
2010,09,25,08,45,16.30
2010,09,25,08,46,16.30
2010,09,25,08,47,16.40
2010,09,25,08,48,16.40
2010,09,25,08,49,16.40
2010,09,25,08,50,16.40
2010,09,25,08,51,16.40
2010,09,25,08,52,16.40
2010,09,25,08,53,16.40
2010,09,25,08,54,16.40
2010,09,25,08,55,16.40
2010,09,25,08,56,16.40
2010,09,25,08,57,16.40
2010,09,25,08,58,16.40
2010,09,25,08,59,16.40
2010,09,25,09,00,16.40
2010,09,25,09,01,16.40
2010,09,25,09,02,16.40
2010,09,25,09,03,16.40
2010,09,25,09,04,16.40
2010,09,25,09,05,16.40
2010,09,25,09,06,16.40
2010,09,25,09,07,16.40
2010,09,25,09,08,16.40
2010,09,25,09,09,16.30
2010,09,25,09,10,16.30
2010,09,25,09,11,16.30
2010,09,25,09,12,16.30
2010,09,25,09,13,16.30
2010,09,25,09,14,16.40
2010,09,25,09,15,16.30
2010,09,25,09,16,16.30
2010,09,25,09,17,16.30
2010,09,25,09,18,16.30
2010,09,25,09,19,16.30
2010,09,25,09,20,16.30
2010,09,25,09,21,16.40
2010,09,25,09,22,16.40
2010,09,25,09,23,16.40
2010,09,25,09,24,16.40
2010,09,25,09,25,16.40
2010,09,25,09,26,16.40
2010,09,25,09,27,16.40
2010,09,25,09,28,16.40
2010,09,25,09,29,16.40
2010,09,25,09,30,16.40
2010,09,25,09,31,16.50
2010,09,25,09,32,16.50
2010,09,25,09,33,16.60
2010,09,25,09,34,16.60
2010,09,25,09,35,16.60
2010,09,25,09,36,16.60
2010,09,25,09,37,16.60
2010,09,25,09,38,16.70
2010,09,25,09,39,16.70
2010,09,25,09,40,16.70
2010,09,25,09,41,16.70
2010,09,25,09,42,16.70
2010,09,25,09,43,16.70
2010,09,25,09,44,16.70
2010,09,25,09,45,16.80
2010,09,25,09,46,16.80
2010,09,25,09,47,16.80
2010,09,25,09,48,16.80
2010,09,25,09,49,16.80
2010,09,25,09,50,16.80
2010,09,25,09,51,16.80
2010,09,25,09,52,16.80
2010,09,25,09,53,16.80
2010,09,25,09,54,16.80
2010,09,25,09,55,16.80
2010,09,25,09,56,16.80
2010,09,25,09,57,16.80
2010,09,25,09,58,16.70
2010,09,25,09,59,16.70
2010,09,25,10,00,16.80
2010,09,25,10,01,16.80
2010,09,25,10,02,16.80
2010,09,25,10,03,16.90
2010,09,25,10,04,16.90
2010,09,25,10,05,16.90
2010,09,25,10,06,16.90
2010,09,25,10,07,17.00
2010,09,25,10,08,17.10
2010,09,25,10,09,17.10
2010,09,25,10,10,17.10
2010,09,25,10,11,17.10
2010,09,25,10,12,17.10
2010,09,25,10,13,17.10
2010,09,25,10,14,17.10
2010,09,25,10,15,17.10
2010,09,25,10,16,17.10
2010,09,25,10,17,17.10
2010,09,25,10,18,17.20
2010,09,25,10,19,17.20
2010,09,25,10,20,17.20
2010,09,25,10,21,17.20
2010,09,25,10,22,17.20
2010,09,25,10,23,17.20
2010,09,25,10,24,17.20
2010,09,25,10,25,17.30
2010,09,25,10,26,17.30
2010,09,25,10,27,17.30
2010,09,25,10,28,17.30
2010,09,25,10,29,17.30
2010,09,25,10,30,17.40
2010,09,25,10,31,17.40
2010,09,25,10,32,17.30
2010,09,25,10,33,17.30
2010,09,25,10,34,17.30
2010,09,25,10,35,17.30
2010,09,25,10,36,17.40
2010,09,25,10,37,17.30
2010,09,25,10,38,17.40
2010,09,25,10,39,17.30
2010,09,25,10,40,17.40
2010,09,25,10,41,17.40
2010,09,25,10,42,17.40
2010,09,25,10,43,17.40
2010,09,25,10,44,17.50
2010,09,25,10,45,17.50
2010,09,25,10,46,17.50
2010,09,25,10,47,17.50
2010,09,25,10,48,17.50
2010,09,25,10,49,17.50
2010,09,25,10,50,17.50
2010,09,25,10,51,17.50
2010,09,25,10,52,17.60
2010,09,25,10,53,17.60
2010,09,25,10,54,17.60
2010,09,25,10,55,17.60
2010,09,25,10,56,17.60
2010,09,25,10,57,17.60
2010,09,25,10,58,17.60
2010,09,25,10,59,17.60
2010,09,25,11,00,17.60
2010,09,25,11,01,17.60
2010,09,25,11,02,17.60
2010,09,25,11,03,17.60
2010,09,25,11,04,17.60
2010,09,25,11,05,17.60
2010,09,25,11,06,17.70
2010,09,25,11,07,17.70
2010,09,25,11,08,17.70
2010,09,25,11,09,17.70
2010,09,25,11,10,17.70
2010,09,25,11,11,17.70
2010,09,25,11,12,17.70
2010,09,25,11,13,17.80
2010,09,25,11,14,17.80
2010,09,25,11,15,17.80
2010,09,25,11,16,17.80
2010,09,25,11,17,17.80
2010,09,25,11,18,17.90
2010,09,25,11,19,17.90
2010,09,25,11,20,17.90
2010,09,25,11,21,17.90
2010,09,25,11,22,17.80
2010,09,25,11,23,17.80
2010,09,25,11,24,17.80
2010,09,25,11,25,17.80
2010,09,25,11,26,17.80
2010,09,25,11,27,17.80
2010,09,25,11,28,17.80
2010,09,25,11,29,17.80
2010,09,25,11,30,17.80
2010,09,25,11,31,17.90
2010,09,25,11,32,17.90
2010,09,25,11,33,18.00
2010,09,25,11,34,18.00
2010,09,25,11,35,18.00
2010,09,25,11,36,18.00
2010,09,25,11,37,17.90
2010,09,25,11,38,17.90
2010,09,25,11,39,17.90
2010,09,25,11,40,17.90
2010,09,25,11,41,17.90
2010,09,25,11,42,17.80
2010,09,25,11,43,17.80
2010,09,25,11,44,17.90
2010,09,25,11,45,17.80
2010,09,25,11,46,17.80
2010,09,25,11,47,17.80
2010,09,25,11,48,17.80
2010,09,25,11,49,17.80
2010,09,25,11,50,17.80
2010,09,25,11,51,17.80
2010,09,25,11,52,17.80
2010,09,25,11,53,17.80
2010,09,25,11,54,17.80
2010,09,25,11,55,17.80
2010,09,25,11,56,17.80
2010,09,25,11,57,17.80
2010,09,25,11,58,17.80
2010,09,25,11,59,17.80
2010,09,25,12,00,17.80
2010,09,25,12,01,17.80
2010,09,25,12,02,17.80
2010,09,25,12,03,17.80
2010,09,25,12,04,17.80
2010,09,25,12,05,17.80
2010,09,25,12,06,17.80
2010,09,25,12,07,17.80
2010,09,25,12,08,17.70
2010,09,25,12,09,17.70
2010,09,25,12,10,17.70
2010,09,25,12,11,17.70
2010,09,25,12,12,17.70
2010,09,25,12,13,17.60
2010,09,25,12,14,17.60
2010,09,25,12,15,17.60
2010,09,25,12,16,17.60
2010,09,25,12,17,17.70
2010,09,25,12,18,17.70
2010,09,25,12,19,17.70
2010,09,25,12,20,17.80
2010,09,25,12,21,17.80
2010,09,25,12,22,17.80
2010,09,25,12,23,17.90
2010,09,25,12,24,17.90
2010,09,25,12,25,17.90
2010,09,25,12,26,17.90
2010,09,25,12,27,17.90
2010,09,25,12,28,17.90
2010,09,25,12,29,17.90
2010,09,25,12,30,17.90
2010,09,25,12,31,17.90
2010,09,25,12,32,17.90
2010,09,25,12,33,17.90
2010,09,25,12,34,17.90
2010,09,25,12,35,17.80
2010,09,25,12,36,17.80
2010,09,25,12,37,17.80
2010,09,25,12,38,17.70
2010,09,25,12,39,17.70
2010,09,25,12,40,17.60
2010,09,25,12,41,17.60
2010,09,25,12,42,17.60
2010,09,25,12,43,17.60
2010,09,25,12,44,17.60
2010,09,25,12,45,17.60
2010,09,25,12,46,17.60
2010,09,25,12,47,17.60
2010,09,25,12,48,17.80
2010,09,25,12,49,18.10
2010,09,25,12,50,18.30
2010,09,25,12,51,18.60
2010,09,25,12,52,18.70
2010,09,25,12,53,18.70
2010,09,25,12,54,18.50
2010,09,25,12,55,18.30
2010,09,25,12,56,18.10
2010,09,25,12,57,17.90
2010,09,25,12,58,17.70
2010,09,25,12,59,17.50
2010,09,25,13,00,17.40
2010,09,25,13,01,17.30
2010,09,25,13,02,17.20
2010,09,25,13,03,17.10
2010,09,25,13,04,17.10
2010,09,25,13,05,17.10
2010,09,25,13,06,17.00
2010,09,25,13,07,17.00
2010,09,25,13,08,17.00
2010,09,25,13,09,17.10
2010,09,25,13,10,17.10
2010,09,25,13,11,17.10
2010,09,25,13,12,17.10
2010,09,25,13,13,17.10
2010,09,25,13,14,17.10
2010,09,25,13,15,17.10
2010,09,25,13,16,17.00
2010,09,25,13,17,17.10
2010,09,25,13,18,17.10
2010,09,25,13,19,17.10
2010,09,25,13,20,17.20
2010,09,25,13,21,17.20
2010,09,25,13,22,17.20
2010,09,25,13,23,17.20
2010,09,25,13,24,17.20
2010,09,25,13,25,17.20
2010,09,25,13,26,17.20
2010,09,25,13,27,17.20
2010,09,25,13,28,17.20
2010,09,25,13,29,17.20
2010,09,25,13,30,17.20
2010,09,25,13,31,17.20
2010,09,25,13,32,17.20
2010,09,25,13,33,17.20
2010,09,25,13,34,17.20
2010,09,25,13,35,17.30
2010,09,25,13,36,17.30
2010,09,25,13,37,17.30
2010,09,25,13,38,17.30
2010,09,25,13,39,17.30
2010,09,25,13,40,17.30
2010,09,25,13,41,17.30
2010,09,25,13,42,17.30
2010,09,25,13,43,17.30
2010,09,25,13,44,17.30
2010,09,25,13,45,17.30
2010,09,25,13,46,17.30
2010,09,25,13,47,17.30
2010,09,25,13,48,17.30
2010,09,25,13,49,17.30
2010,09,25,13,50,17.30
2010,09,25,13,51,17.30
2010,09,25,13,52,17.40
2010,09,25,13,53,17.40
2010,09,25,13,54,17.40
2010,09,25,13,55,17.40
2010,09,25,13,56,17.40
2010,09,25,13,57,17.40
2010,09,25,13,58,17.40
2010,09,25,13,59,17.40
2010,09,25,14,00,17.50
2010,09,25,14,01,17.60
2010,09,25,14,02,17.60
2010,09,25,14,03,17.60
2010,09,25,14,04,17.80
2010,09,25,14,05,17.90
2010,09,25,14,06,18.10
2010,09,25,14,07,18.20
2010,09,25,14,08,18.30
2010,09,25,14,09,18.50
2010,09,25,14,10,18.50
2010,09,25,14,11,18.60
2010,09,25,14,12,18.70
2010,09,25,14,13,18.70
2010,09,25,14,14,18.80
2010,09,25,14,15,18.80
2010,09,25,14,16,18.80
2010,09,25,14,17,18.90
2010,09,25,14,18,18.90
2010,09,25,14,19,18.80
2010,09,25,14,20,18.90
2010,09,25,14,21,18.90
2010,09,25,14,22,18.90
2010,09,25,14,23,18.90
2010,09,25,14,24,18.90
2010,09,25,14,25,18.90
2010,09,25,14,26,18.90
2010,09,25,14,27,18.90
2010,09,25,14,28,19.00
2010,09,25,14,29,19.00
2010,09,25,14,30,19.00
2010,09,25,14,31,19.00
2010,09,25,14,32,19.00
2010,09,25,14,33,19.00
2010,09,25,14,34,18.90
2010,09,25,14,35,18.90
2010,09,25,14,36,18.90
2010,09,25,14,37,18.90
2010,09,25,14,38,18.90
2010,09,25,14,39,18.90
2010,09,25,14,40,18.90
2010,09,25,14,41,18.90
2010,09,25,14,42,18.90
2010,09,25,14,43,18.90
2010,09,25,14,44,18.90
2010,09,25,14,45,18.90
2010,09,25,14,46,18.90
2010,09,25,14,47,18.90
2010,09,25,14,48,18.90
2010,09,25,14,49,18.90
2010,09,25,14,50,18.90
2010,09,25,14,51,18.90
2010,09,25,14,52,18.90
2010,09,25,14,53,18.90
2010,09,25,14,54,18.90
2010,09,25,14,55,18.90
2010,09,25,14,56,18.90
2010,09,25,14,57,18.90
2010,09,25,14,58,18.90
2010,09,25,14,59,18.90
2010,09,25,15,00,18.90
2010,09,25,15,01,18.90
2010,09,25,15,02,18.90
2010,09,25,15,03,18.90
2010,09,25,15,04,18.90
2010,09,25,15,05,18.90
2010,09,25,15,06,19.00
2010,09,25,15,07,19.00
2010,09,25,15,08,19.10
2010,09,25,15,09,19.10
2010,09,25,15,10,19.10
2010,09,25,15,11,19.20
2010,09,25,15,12,19.30
2010,09,25,15,13,19.40
2010,09,25,15,14,19.50
2010,09,25,15,15,19.50
2010,09,25,15,16,19.60
2010,09,25,15,17,19.60
2010,09,25,15,18,19.70
2010,09,25,15,19,19.70
2010,09,25,15,20,19.70
2010,09,25,15,21,19.70
2010,09,25,15,22,19.70
2010,09,25,15,23,19.70
2010,09,25,15,24,19.70
2010,09,25,15,25,19.70
2010,09,25,15,26,19.70
2010,09,25,15,27,19.70
2010,09,25,15,28,19.70
2010,09,25,15,29,19.70
2010,09,25,15,30,19.70
2010,09,25,15,31,19.70
2010,09,25,15,32,19.80
2010,09,25,15,33,19.80
2010,09,25,15,34,19.80
2010,09,25,15,35,19.80
2010,09,25,15,36,19.80
2010,09,25,15,37,19.80
2010,09,25,15,38,19.70
2010,09,25,15,39,19.70
2010,09,25,15,40,19.70
2010,09,25,15,41,19.70
2010,09,25,15,42,19.70
2010,09,25,15,43,19.70
2010,09,25,15,44,19.60
2010,09,25,15,45,19.60
2010,09,25,15,46,19.60
2010,09,25,15,47,19.60
2010,09,25,15,48,19.70
2010,09,25,15,49,19.70
2010,09,25,15,50,19.70
2010,09,25,15,51,19.70
2010,09,25,15,52,19.70
2010,09,25,15,53,19.80
2010,09,25,15,54,19.80
2010,09,25,15,55,19.90
2010,09,25,15,56,19.90
2010,09,25,15,57,20.00
2010,09,25,15,58,20.00
2010,09,25,15,59,20.10
2010,09,25,16,00,20.10
2010,09,25,16,01,20.10
2010,09,25,16,02,20.10
2010,09,25,16,03,20.10
2010,09,25,16,04,20.10
2010,09,25,16,05,20.10
2010,09,25,16,06,20.10
2010,09,25,16,07,20.10
2010,09,25,16,08,20.10
2010,09,25,16,09,20.00
2010,09,25,16,10,20.00
2010,09,25,16,11,20.00
2010,09,25,16,12,20.00
2010,09,25,16,13,20.00
2010,09,25,16,14,20.10
2010,09,25,16,15,20.10
2010,09,25,16,16,20.20
2010,09,25,16,17,20.30
2010,09,25,16,18,20.40
2010,09,25,16,19,20.50
2010,09,25,16,20,20.50
2010,09,25,16,21,20.60
2010,09,25,16,22,20.60
2010,09,25,16,23,20.60
2010,09,25,16,24,20.60
2010,09,25,16,25,20.70
2010,09,25,16,26,20.70
2010,09,25,16,27,20.60
2010,09,25,16,28,20.60
2010,09,25,16,29,20.60
2010,09,25,16,30,20.60
2010,09,25,16,31,20.60
2010,09,25,16,32,20.60
2010,09,25,16,33,20.70
2010,09,25,16,34,20.70
2010,09,25,16,35,20.70
2010,09,25,16,36,20.70
2010,09,25,16,37,20.70
2010,09,25,16,38,20.70
2010,09,25,16,39,20.80
2010,09,25,16,40,20.80
2010,09,25,16,41,20.80
2010,09,25,16,42,20.80
2010,09,25,16,43,20.80
2010,09,25,16,44,20.80
2010,09,25,16,45,20.80
2010,09,25,16,46,20.80
2010,09,25,16,47,20.80
2010,09,25,16,48,20.80
2010,09,25,16,49,20.80
2010,09,25,16,50,20.80
2010,09,25,16,51,20.80
2010,09,25,16,52,20.80
2010,09,25,16,53,20.80
2010,09,25,16,54,20.80
2010,09,25,16,55,20.80
2010,09,25,16,56,20.80
2010,09,25,16,57,20.80
2010,09,25,16,58,20.80
2010,09,25,16,59,20.80
2010,09,25,17,00,20.70
2010,09,25,17,01,20.60
2010,09,25,17,02,20.60
2010,09,25,17,03,20.50
2010,09,25,17,04,20.50
2010,09,25,17,05,20.40
2010,09,25,17,06,20.40
2010,09,25,17,07,20.40
2010,09,25,17,08,20.40
2010,09,25,17,09,20.30
2010,09,25,17,10,20.30
2010,09,25,17,11,20.30
2010,09,25,17,12,20.30
2010,09,25,17,13,20.30
2010,09,25,17,14,20.20
2010,09,25,17,15,20.20
2010,09,25,17,16,20.20
2010,09,25,17,17,20.20
2010,09,25,17,18,20.20
2010,09,25,17,19,20.10